| time (UTC) | temp C | wind direction | speed KPH | gust KPH | rain 1hr cm | rain 24hr cm | rain mn cm | humidity % | barometer mb |
| 20260505100034 | 12 | 47 | 33.8 | 64.4 | 0.00 | 0.00 | 0.00 | 65 | 1002.9 |
| 20260505094530 | 12 | 69 | 38.6 | 57.9 | 0.00 | 0.00 | 0.00 | 67 | 1002.5 |
| 20260505093029 | 13 | 56 | 29.0 | 48.3 | 0.00 | 0.00 | 0.00 | 72 | 1002.4 |
| 20260505091532 | 13 | 69 | 37.0 | 54.7 | 0.00 | 0.00 | 0.00 | 67 | 1002.1 |
| 20260505090039 | 14 | 87 | 32.2 | 59.5 | 0.00 | 0.00 | 0.00 | 69 | 1002.0 |
| 20260505084522 | 15 | 71 | 32.2 | 45.1 | 0.00 | 0.00 | 0.00 | 73 | 1001.6 |
| 20260505083014 | 15 | 46 | 24.1 | 38.6 | 0.00 | 0.00 | 0.00 | 78 | 1001.6 |
| 20260505081511 | 16 | 92 | 30.6 | 49.9 | 0.00 | 0.00 | 0.00 | 75 | 1001.3 |
| 20260505080007 | 17 | 74 | 24.1 | 38.6 | 0.00 | 0.00 | 0.00 | 70 | 1001.1 |
| 20260505074502 | 18 | 60 | 20.9 | 38.6 | 0.00 | 0.00 | 0.00 | 74 | 1000.6 |
| 20260505073101 | 19 | 55 | 19.3 | 32.2 | 0.00 | 0.00 | 0.00 | 75 | 1000.5 |
| 20260505071557 | 19 | 60 | 11.3 | 19.3 | 0.00 | 0.00 | 0.00 | 73 | 1000.4 |
| 20260505070056 | 20 | 88 | 8.0 | 16.1 | 0.00 | 0.00 | 0.00 | 73 | 1000.4 |
| 20260505064550 | 20 | 73 | 14.5 | 17.7 | 0.00 | 0.00 | 0.00 | 73 | 1000.4 |
| 20260505063047 | 20 | 98 | 8.0 | 12.9 | 0.00 | 0.00 | 0.00 | 72 | 1000.1 |
| 20260505061545 | 20 | 108 | 6.4 | 20.9 | 0.00 | 0.00 | 0.00 | 71 | 999.9 |
| 20260505060044 | 20 | 144 | 12.9 | 24.1 | 0.00 | 0.00 | 0.00 | 71 | 999.3 |
| 20260505054542 | 20 | 192 | 16.1 | 30.6 | 0.00 | 0.00 | 0.00 | 71 | 999.5 |
| 20260505053039 | 20 | 176 | 9.7 | 20.9 | 0.00 | 0.00 | 0.00 | 71 | 999.6 |
| 20260505051537 | 20 | 208 | 12.9 | 29.0 | 0.00 | 0.00 | 0.00 | 69 | 999.3 |
| 20260505050104 | 21 | 138 | 11.3 | 24.1 | 0.00 | 0.00 | 0.00 | 66 | 999.0 |
| 20260505041547 | 20 | 127 | 6.4 | 19.3 | 0.00 | 0.00 | 0.00 | 70 | 999.2 |
| 20260505040030 | 21 | 178 | 8.0 | 30.6 | 0.00 | 0.00 | 0.00 | 73 | 998.8 |
| 20260505034528 | 22 | 217 | 16.1 | 25.7 | 0.00 | 0.00 | 0.00 | 71 | 999.1 |
| 20260505033027 | 22 | 163 | 4.8 | 20.9 | 0.00 | 0.00 | 0.00 | 68 | 999.1 |
| 20260505031525 | 22 | 206 | 4.8 | 19.3 | 0.00 | 0.00 | 0.00 | 67 | 999.6 |
| 20260505030029 | 22 | 190 | 11.3 | 22.5 | 0.00 | 0.00 | 0.00 | 66 | 999.5 |
| 20260505024526 | 22 | 183 | 11.3 | 30.6 | 0.00 | 0.00 | 0.00 | 65 | 999.7 |
| 20260505023028 | 23 | 186 | 9.7 | 20.9 | 0.00 | 0.00 | 0.00 | 64 | 999.4 |
| 20260505021526 | 23 | 167 | 14.5 | 24.1 | 0.00 | 0.00 | 0.00 | 63 | 999.7 |
| 20260505020021 | 23 | 175 | 9.7 | 20.9 | 0.00 | 0.00 | 0.00 | 62 | 1000.0 |
| 20260505014519 | 23 | 159 | 9.7 | 19.3 | 0.00 | 0.00 | 0.00 | 60 | 999.2 |
| 20260505013020 | 23 | 164 | 8.0 | 16.1 | 0.00 | 0.00 | 0.00 | 58 | 999.1 |
| 20260505011527 | 23 | 170 | 6.4 | 16.1 | 0.00 | 0.00 | 0.00 | 56 | 998.8 |
| 20260505010017 | 24 | 149 | 9.7 | 17.7 | 0.00 | 0.00 | 0.00 | 55 | 998.5 |
| 20260505004529 | 24 | 150 | 9.7 | 17.7 | 0.00 | 0.00 | 0.00 | 54 | 998.6 |
| 20260505003015 | 25 | 126 | 6.4 | 16.1 | 0.00 | 0.00 | 0.00 | 52 | 998.8 |
| 20260505001514 | 25 | 182 | 9.7 | 20.9 | 0.00 | 0.00 | 0.00 | 50 | 998.6 |
| 20260505000021 | 25 | 157 | 6.4 | 22.5 | 0.00 | 0.00 | 0.00 | 49 | 998.8 |
| 20260504234512 | 26 | 209 | 8.0 | 17.7 | 0.00 | 0.00 | 0.00 | 48 | 999.1 |
| 20260504233011 | 26 | 211 | 11.3 | 19.3 | 0.00 | 0.00 | 0.00 | 47 | 999.1 |
| 20260504231510 | 26 | 193 | 14.5 | 30.6 | 0.00 | 0.00 | 0.00 | 45 | 999.1 |
| 20260504230016 | 27 | 195 | 16.1 | 33.8 | 0.00 | 0.00 | 0.00 | 43 | 999.0 |
| 20260504224508 | 27 | 191 | 16.1 | 30.6 | 0.00 | 0.00 | 0.00 | 43 | 999.1 |
| 20260504223007 | 27 | 244 | 14.5 | 29.0 | 0.00 | 0.00 | 0.00 | 41 | 999.2 |
| 20260504221506 | 27 | 242 | 12.9 | 33.8 | 0.00 | 0.00 | 0.00 | 41 | 999.1 |
| 20260504220006 | 28 | 193 | 14.5 | 29.0 | 0.00 | 0.00 | 0.00 | 40 | 999.2 |
| 20260504214506 | 28 | 166 | 9.7 | 32.2 | 0.00 | 0.00 | 0.00 | 39 | 999.4 |
| 20260504213013 | 28 | 166 | 19.3 | 33.8 | 0.00 | 0.00 | 0.00 | 39 | 999.8 |
| 20260504211510 | 28 | 208 | 14.5 | 29.0 | 0.00 | 0.00 | 0.00 | 39 | 999.5 |
| 20260504210002 | 28 | 252 | 14.5 | 30.6 | 0.00 | 0.00 | 0.00 | 39 | 999.8 |
| 20260504204603 | 28 | 238 | 14.5 | 30.6 | 0.00 | 0.00 | 0.00 | 38 | 999.9 |
| 20260504203121 | 28 | 244 | 14.5 | 29.0 | 0.00 | 0.00 | 0.00 | 38 | 999.9 |
| 20260504201558 | 28 | 190 | 12.9 | 33.8 | 0.00 | 0.00 | 0.00 | 38 | 1000.2 |
| 20260504200056 | 28 | 213 | 16.1 | 29.0 | 0.00 | 0.00 | 0.00 | 36 | 1000.3 |
| 20260504194603 | 29 | 185 | 12.9 | 25.7 | 0.00 | 0.00 | 0.00 | 34 | 1000.6 |
| 20260504193100 | 28 | 222 | 9.7 | 24.1 | 0.00 | 0.00 | 0.00 | 35 | 1000.6 |
| 20260504191550 | 28 | 246 | 14.5 | 29.0 | 0.00 | 0.00 | 0.00 | 35 | 1000.9 |
| 20260504190109 | 28 | 163 | 14.5 | 24.1 | 0.00 | 0.00 | 0.00 | 35 | 1000.8 |
| 20260504184558 | 28 | 214 | 11.3 | 30.6 | 0.00 | 0.00 | 0.00 | 36 | 1000.9 |
| 20260504183045 | 28 | 242 | 12.9 | 25.7 | 0.00 | 0.00 | 0.00 | 37 | 1001.1 |
| 20260504181544 | 27 | 173 | 9.7 | 25.7 | 0.00 | 0.00 | 0.00 | 37 | 1001.5 |
| 20260504180044 | 27 | 213 | 14.5 | 25.7 | 0.00 | 0.00 | 0.00 | 37 | 1001.5 |
| 20260504174538 | 27 | 231 | 9.7 | 20.9 | 0.00 | 0.00 | 0.00 | 39 | 1001.5 |
| 20260504173045 | 26 | 268 | 12.9 | 22.5 | 0.00 | 0.00 | 0.00 | 40 | 1001.5 |
| 20260504171536 | 26 | 217 | 16.1 | 32.2 | 0.00 | 0.00 | 0.00 | 40 | 1001.6 |